FLOCK 4P-1 (44814 NORAD) Tracking and Keplerian Element Data

This shows tracking and keplerian element data for the satellite.

Feedback or suggestion? Click here.




ElementValue
Catalog44814
NameFLOCK 4P-1
Epoch Orbit789
Epoch Day18.16048934
Epoch Year2020
RAAN80.0093
Inclination97.5176
Eccentricity0.0013345
Argument of Perigee61.6137
Mean Anonmoly298.6441
Mean Motion15.19604726
Decay Rate4.32E-06
L11 44814U 19081L 20018.16048934 .00000432 00000-0 23548-4 0 9991
L22 44814 97.5176 80.0093 0013345 61.6137 298.6441 15.19604726 7897

Live tracking and technical data element details for FLOCK 4P-1 (NORAD 44814). FLOCK 4P-1 can be tracked NOW for your location showing map with azimuth and elevation plus other details from your city location.

Track the satellite on the map from your city or location and see movement details for azimuth, elevation, latitude, longitude, range, height, and movement on the map or in text.







IsCatalogInMostPopularTable: catalog: 44814, numindb: 14
Update: records affected: 1



GetName: 44814 FLOCK 4P-1

Hit Count: updated at: Mon, 20 Jan 2020 03:44:29 GMT